Terminal Aerodrome Forecast
Issued by NWS

Home | Current Version | Previous Version | Text Only | Print | Product List | Glossary On
Versions: 1 2 3 4 5 6 7 8 9 10 11 12 13 14 15 16 17
889
FTUS46 KSEW 220722 AAA
TAFHQM
TAF AMD
KHQM 220722Z 2207/2306 VRB03KT P6SM SKC
     FM220800 VRB03KT 5SM BR SCT004
      TEMPO 2208/2210 1SM BR OVC004
     FM221000 VRB03KT 1SM BR OVC003
     FM221600 26006KT 5SM BR OVC006
     FM221800 26006KT P6SM BKN009
     FM222000 24012KT P6SM SCT250
     FM230400 26006KT 5SM BR OVC008=

USA.gov is the U.S. government's official web portal to all federal, state and local government web resources and services.